Regional Weather Roundup
Issued by NWS

Home | Current Version | Previous Version | Text Only | Print | Product List | Glossary On
Versions: 1 2 3 4 5 6 7 8 9 10 11 12 13 14 15 16 17 18 19 20 21 22 23 24 25 26 27 28 29 30 31 32 33 34 35 36 37 38 39 40 41 42 43 44 45 46 47 48 49 50
000
ASHW40 PHFO 161430
RWRHI

WEATHER ROUNDUP FOR HAWAII
NATIONAL WEATHER SERVICE HONOLULU HI
400 AM HST TUE SEP 16 2014

THIS IS AN AUTOMATED REPORT THAT HAS NOT BEEN QUALITY CONTROLLED.

NOTE..."FAIR" INDICATES FEW OR NO CLOUDS BELOW 12,000 FEET WITH NO
SIGNIFICANT WEATHER AND/OR OBSTRUCTIONS TO VISIBILITY.

* - THESE SITES REPORT LIMITED FIELDS

HIZ001>004-161500-
KAUAI-NIIHAU-

CITY           SKY/WX    TMP DP  RH WIND       PRES   REMARKS
LIHUE APT      CLEAR     73  68  84 W7        29.95F
PORT ALLEN*      N/A     70 N/A N/A NE6         N/A
POIPU*           N/A     72 N/A N/A NW2         N/A
PRINCEVILLE*   NOT AVBL
KOKOLE POINT*    N/A     75 N/A N/A MISG        N/A
MOLOAA DAIRY*  NOT AVBL
WAIMEA HTS*    NOT AVBL
PUU OPAE*      NOT AVBL
PUU LUA*       NOT AVBL
MAKAHA RIDGE*  NOT AVBL
$$

HIZ005>011-161500-
OAHU-

CITY           SKY/WX    TMP DP  RH WIND       PRES   REMARKS
HONOLULU       PTCLDY    78  70  76 NW7       29.93S
KALAELOA       PTCLDY    72  68  87 CALM      29.94S
KANEOHE MCB    PTCLDY    77  73  87 NE7       29.93S
WHEELER FIELD  FAIR      72  68  88 NW6       29.95S
BELLOWS*         N/A    N/A N/A N/A NE8         N/A
KAHUKU*          N/A    N/A N/A N/A SE1         N/A
WHEELER*       NOT AVBL
WAIANAE HARBOR NOT AVBL
DILLINGHAM*      N/A     75  72  88 SE2G10      N/A
KAHUKU TRN*      N/A     73  70  88 E3          N/A
KAWAILOA*      NOT AVBL
KII*             N/A     79  72  78 CALM        N/A
MAKUA RANGE*     N/A     77  72  83 E3G14       N/A
OAHU FOREST NW NOT AVBL
SCHOFIELD BRK*   N/A     72  70  94 MISG        N/A
SCHOFIELD S*   NOT AVBL
WAIANAE VLY*   NOT AVBL
KUAOKALA*      NOT AVBL
HONOULIUULI*   NOT AVBL
MOKUOLOE IS*     N/A    N/A N/A N/A MISG        N/A
PALEHUA*       NOT AVBL
WAIAWA PHB*    NOT AVBL
$$

HIZ012>013-161500-
MOLOKAI-

CITY           SKY/WX    TMP DP  RH WIND       PRES   REMARKS
MOLOKAI AIRPT  CLEAR     72  72 100 N3        29.94S
KALAUPAPA      NOT AVBL
MAKAPULAPAI*   NOT AVBL
MOLOKAI 1*     NOT AVBL
PUU ALII*        N/A     61  60  98 E2          N/A
$$

HIZ016-161500-
KAHOOLAWE-

CITY           SKY/WX    TMP DP  RH WIND       PRES   REMARKS
KAHOOLAWE*     NOT AVBL
HAKIOAWA*      NOT AVBL
HONOKANAIA*      N/A     78  71  79 N8G16     29.93S
KANELOA*         N/A     75  70  83 NE7       29.16S
KEALIALALO*    NOT AVBL
LUA MAKIKA*    NOT AVBL
$$

HIZ014>015-161500-
LANAI-

CITY           SKY/WX    TMP DP  RH WIND       PRES   REMARKS
LANAI CITY     FAIR      72  67  84 E8        29.99S
LANAI 1*       NOT AVBL
$$

HIZ017>028-161500-
MAUI-

CITY           SKY/WX    TMP DP  RH WIND       PRES   REMARKS
KAHULUI        CLEAR     76  70  82 N5        29.93S
KAPALUA-W MAUI NOT AVBL
HANA AIRPORT   CLEAR     68  68 100 CALM      29.96S
HANA*            N/A     72 N/A N/A S5          N/A
HALEAKALA SUMM   N/A     48  23  37 W6G22       N/A
MAALAEA BAY*   NOT AVBL
HALEAKALA*     NOT AVBL
KAUPO GAP*     NOT AVBL
KULA 1*          N/A     54  40  59 E6          N/A
$$

HIZ023>026-161500-
BIG ISLAND OF HAWAII COAST AND LOWER SLOPES-

CITY           SKY/WX    TMP DP  RH WIND       PRES   REMARKS
KAILUA KONA    CLOUDY    80  71  74 SE3       29.90S
HILO           PTCLDY    72  66  81 SW7       29.92S
HONOKAA*       NOT AVBL
KAWAIHAE MWT*    N/A     79 N/A N/A E3          N/A
KAWAIHAE*        N/A     79 N/A N/A NE3         N/A
SOUTH POINT*     N/A     73 N/A N/A NE7         N/A
UPOLU AIRPORT*   N/A    N/A N/A N/A E9          N/A
KAMUELA*       PTSUNNY   63  63 100 NE10      30.05R
HAKALAU*         N/A     46  39  76 W5          N/A
KALOKO-HONOKO*   N/A     77  72  83 E3        29.89S
PALI 2*          N/A     66  64  94 NW3         N/A
KEALAKOMO*       N/A     79  70  73 NW3G9       N/A
KAUPULEHU*     NOT AVBL
KAPAPALA*        N/A     69  68  96 CALM        N/A
LOWER KAHUKU*  NOT AVBL
PUHE CS*       NOT AVBL
PUHO CS*         N/A     77  68  73 E2          N/A
PTA KEAMUKU*     N/A     63  55  77 E7          N/A
WAIKOLOA*      NOT AVBL
$$

HIZ027>028-161500-
BIG ISLAND OF HAWAII INTERIOR AND SUMMMITS-

CITY           SKY/WX    TMP DP  RH WIND       PRES   REMARKS
BRADSHAW FIELD CLOUDY    54  52  94 E3        30.28F
MK VISITOR CEN NOT AVBL
MAUNA KEA*       N/A     41   1  19 S1          N/A
MAUNA LOA*       N/A    N/A N/A N/A MISG        N/A
MAUNA LOA 1*     N/A    N/A N/A N/A MISG        N/A
PTA KIPUKA*      N/A     57  55  94 E3          N/A
PTA RANGE 17*    N/A     59  59 100 NE1         N/A
PTA WEST*        N/A     57  55  94 SE6         N/A
NENE CABIN*    NOT AVBL
AHUMOA*        NOT AVBL
PTA PORTABLE*  NOT AVBL
PUU MALI*      NOT AVBL
$$

HIC003-161500-
NORTHWEST ISLANDS-

CITY           SKY/WX    TMP DP  RH WIND       PRES   REMARKS
MIDWAY ISLAND  MOCLDY    81  75  83 CALM      30.10S
MIDWAY NOS*    NOT AVBL
FRENCH FRIGATE NOT AVBL
$$

PHZ110>124-180-161500-
BUOY REPORTS

STATION/POSITION TIME  TEMP    WIND        PRES    WAVE   SWELL
                       AIR SEA DIR/SP/G            HT/PER HT/DIR
                 (UTC) (F)     (DEG/KT/KT) (MB)    (FT/S) (FT/D)
BUOY 51001       NOT AVBL
BUOY 51101       NOT AVBL
BUOY 51100       1300   80 81   50/ 10/ 12 1013.0F   5/10   5/300
BUOY 51003       1400   81 83   60/ 10/ 12 1012.9F   5/14   5
BUOY 51004       1322   78 81   60/  4/  6 1012.3S   6/15   5/170
BARBERS PT BUOY  NOT AVBL
WAIMEA BAY BUOY  1400      82                N/A     5/11
KAILUA BAY BUOY  1400      83                N/A     4/11   2/ 20
LANAI BUOY       NOT AVBL
BARBERS PT 2     1400      83                N/A     5/15   3/190
PAUWELA MAUI     1400      81                N/A     4/11   2/340
HILO             1400      81                N/A     4/11   2
KANEOHE BAY BUOY NOT AVBL
HANALEI KAUAI    NOT AVBL
KAHULUI HARBOR   1400   78                   N/A
HONOLULU HARBOR  1400   80                   N/A
KILO NALU        NOT AVBL
HILO HARBOR      1400   74                   N/A
MOKUOLOE         1400   80                   N/A
NAWILIWILI       NOT AVBL
WHOTS BUOY       NOT AVBL
BUOY 51028       NOT AVBL
$$

......................KEY........................................
  SKY/WX - SKY CONDITIONS/PRESENT WEATHER
  TMP    - TEMPERATURE IN FAHRENHEIT
  DWPT   - DEWPOINT IN FAHRENHEIT
  RH     - RELATIVE HUMIDITY IN PERCENT
  WIND   - DIRECTION AND SPEED /MPH FOR ISLANDS...KTS FOR BUOYS/
  PRES   - MEAN SEA LEVEL PRESSURE IN INCHES OF HG
  VSB    - VISIBILITY IN MILES
  HX     - HEAT INDEX
  WCI    - WIND CHILL INDEX
  VRB    - VARIABLE WIND DIRECTION
  N/A    - NOT AVAILABLE


USA.gov is the U.S. government's official web portal to all federal, state and local government web resources and services.